TimeEDT,TemperatureF,Dew PointF,Humidity,Sea Level PressureIn,VisibilityMPH,Wind Direction,Wind SpeedMPH,Gust SpeedMPH,PrecipitationIn,Events,Conditions,WindDirDegrees,DateUTC
12:44 AM,55.4,55.4,100,30.04,1.8,South,3.5,-,N/A,,Overcast,180,2013-05-09 04:44:00
12:53 AM,55.0,55.0,100,30.04,0.8,South,3.5,-,N/A,,Overcast,170,2013-05-09 04:53:00
1:20 AM,55.4,55.4,100,30.03,0.5,Calm,Calm,-,N/A,Fog,Fog,0,2013-05-09 05:20:00
1:43 AM,55.4,55.4,100,30.03,0.5,SW,4.6,-,0.00,Fog,Fog,220,2013-05-09 05:43:00
1:53 AM,55.9,55.9,100,30.02,0.5,Calm,Calm,-,0.00,Fog,Fog,0,2013-05-09 05:53:00
2:12 AM,55.4,55.4,100,30.02,1.2,South,3.5,-,N/A,,Overcast,180,2013-05-09 06:12:00
2:25 AM,55.4,55.4,100,30.01,2.5,Calm,Calm,-,N/A,,Overcast,0,2013-05-09 06:25:00
2:36 AM,55.4,55.4,100,30.01,4.0,Calm,Calm,-,N/A,,Overcast,0,2013-05-09 06:36:00
2:53 AM,55.9,55.9,100,30.00,1.8,Calm,Calm,-,N/A,,Overcast,0,2013-05-09 06:53:00
3:11 AM,57.2,55.4,94,29.99,0.8,Calm,Calm,-,N/A,,Mist,0,2013-05-09 07:11:00
3:30 AM,57.2,57.2,100,29.99,0.2,Calm,Calm,-,N/A,Fog,Fog,0,2013-05-09 07:30:00
3:32 AM,57.2,57.2,100,29.99,0.5,Calm,Calm,-,N/A,Fog,Fog,0,2013-05-09 07:32:00
3:53 AM,57.0,55.9,96,30.00,0.5,Calm,Calm,-,N/A,Fog,Fog,0,2013-05-09 07:53:00
4:53 AM,57.0,57.0,100,29.99,0.5,Calm,Calm,-,N/A,Fog,Fog,0,2013-05-09 08:53:00
5:53 AM,57.0,55.9,96,29.97,0.2,Calm,Calm,-,N/A,Fog,Fog,0,2013-05-09 09:53:00
6:53 AM,57.9,57.9,100,29.99,0.5,East,3.5,-,N/A,Fog,Fog,80,2013-05-09 10:53:00
6:55 AM,57.2,57.2,100,29.99,0.2,East,4.6,-,N/A,Fog,Fog,90,2013-05-09 10:55:00
7:10 AM,57.2,57.2,100,29.99,0.5,Calm,Calm,-,N/A,Fog,Fog,0,2013-05-09 11:10:00
7:43 AM,59.0,59.0,100,29.99,2.0,East,5.8,-,N/A,,Overcast,100,2013-05-09 11:43:00
7:53 AM,59.0,59.0,100,29.99,6.0,East,5.8,-,N/A,,Overcast,90,2013-05-09 11:53:00
8:05 AM,60.8,59.0,94,29.99,2.0,East,3.5,-,N/A,,Overcast,80,2013-05-09 12:05:00
8:21 AM,60.8,59.0,94,29.99,6.0,ESE,6.9,-,N/A,,Overcast,110,2013-05-09 12:21:00
8:53 AM,57.9,57.0,97,29.99,10.0,SSE,3.5,-,N/A,,Overcast,160,2013-05-09 12:53:00
9:19 AM,59.0,57.2,94,29.98,10.0,SE,3.5,-,N/A,,Overcast,140,2013-05-09 13:19:00
9:53 AM,61.0,59.0,93,29.98,6.0,SSE,6.9,-,N/A,,Overcast,150,2013-05-09 13:53:00
10:53 AM,64.9,59.0,81,29.98,10.0,SW,6.9,-,N/A,,Overcast,220,2013-05-09 14:53:00
11:53 AM,66.0,60.1,81,29.97,10.0,South,8.1,-,N/A,,Mostly Cloudy,190,2013-05-09 15:53:00
12:24 PM,64.4,60.8,88,29.97,10.0,SSW,6.9,-,N/A,,Overcast,210,2013-05-09 16:24:00
1:53 PM,62.1,57.0,84,29.97,10.0,South,10.4,-,0.00,,Overcast,180,2013-05-09 17:53:00
2:49 PM,62.6,57.2,82,29.95,7.0,SSW,6.9,-,0.01,Rain,Light Rain,210,2013-05-09 18:49:00
2:53 PM,62.1,59.0,90,29.95,7.0,South,4.6,-,0.01,Rain,Light Rain,190,2013-05-09 18:53:00
4:31 PM,64.4,55.4,73,29.91,10.0,SSE,9.2,-,N/A,,Mostly Cloudy,160,2013-05-09 20:31:00
4:41 PM,64.4,57.2,77,29.91,10.0,SSE,8.1,-,N/A,,Mostly Cloudy,150,2013-05-09 20:41:00
4:50 PM,64.4,57.2,77,29.91,10.0,South,10.4,-,0.00,Rain,Light Rain,170,2013-05-09 20:50:00
4:53 PM,64.0,57.0,78,29.91,10.0,South,10.4,-,0.00,Rain,Light Rain,180,2013-05-09 20:53:00
5:23 PM,62.6,57.2,82,29.91,10.0,South,12.7,-,0.00,,Overcast,170,2013-05-09 21:23:00
5:27 PM,62.6,57.2,82,29.90,10.0,South,11.5,-,0.00,,Overcast,170,2013-05-09 21:27:00
5:53 PM,60.1,55.9,86,29.90,10.0,South,10.4,-,0.00,,Overcast,190,2013-05-09 21:53:00
6:53 PM,57.0,55.0,93,29.90,10.0,SW,10.4,19.6,N/A,,Overcast,220,2013-05-09 22:53:00
7:18 PM,53.6,53.6,100,29.91,2.0,SW,12.7,-,N/A,,Overcast,220,2013-05-09 23:18:00
7:24 PM,53.6,53.6,100,29.91,0.8,SW,11.5,-,N/A,,Overcast,230,2013-05-09 23:24:00
7:36 PM,53.6,53.6,100,29.91,0.2,SSW,11.5,-,N/A,Fog,Fog,210,2013-05-09 23:36:00
7:53 PM,53.1,53.1,100,29.92,0.5,SW,9.2,-,N/A,Fog,Fog,220,2013-05-09 23:53:00
8:53 PM,53.1,52.0,96,29.93,1.0,SW,9.2,-,N/A,,Overcast,220,2013-05-10 00:53:00
10:06 PM,53.6,51.8,94,29.92,0.8,SW,9.2,-,N/A,,Overcast,220,2013-05-10 02:06:00
10:18 PM,51.8,51.8,100,29.92,1.0,SW,8.1,-,N/A,,Overcast,220,2013-05-10 02:18:00
10:33 PM,51.8,51.8,100,29.92,2.0,SW,4.6,-,N/A,,Overcast,230,2013-05-10 02:33:00
10:53 PM,53.1,53.1,100,29.92,1.5,SW,4.6,-,N/A,,Overcast,230,2013-05-10 02:53:00
11:53 PM,53.1,53.1,100,29.91,1.5,SW,4.6,-,N/A,,Overcast,220,2013-05-10 03:53:00